星链-6071 (STARLINK-6071 )

导读 | 星芒AI

STARLINK-6071 是 SpaceX 星链计划中的一颗低轨通信卫星,属于第 61 批部署的星链卫星群。该卫星于 2023 年发射,旨在为全球用户提供高速互联网服务。它运行在约 550 公里的轨道高度,采用先进的通信技术,支持宽带数据传输。星链项目通过部署大量卫星,构建覆盖全球的卫星互联网网络,尤其服务于偏远地区。STARLINK-6071 的加入进一步增强了星链系统的覆盖能力与稳定性。

基本信息
目录编号:
56132
目录名称:
STARLINK-6071
国际标识:
2023-046AS
轨道中心:
EARTH
卫星名称:
星链-6071
卫星全名:
星链-6071 (STARLINK-6071 )
卫星状态:
在轨 (已飞行951 天)
发射日期:
2023-03-29 UTC
国别 :
美国 (US)
星等 :
--
轨道信息
数据来源 国际轨道数据
星历时间: 2025-11-04T01:38:12+0800
12小时前
查看轨道信息
半长轴: 6937.227km
偏心率: 0.0001318
轨道倾角: 43.003°
近地点辐角 269.496°
升交点赤经 110.496°
平近点角 90.573°
近地点: 558.177km
远地点: 560.007km
周期: 95.838分钟
每日圈数: 15.025326
详细信息
固有亮度:
5
最大亮度:
2.5
卫星平台:
Starlink v1.5
覆盖范围:
全球
运营商:
太空探索技术公司
运营商所在国:
美国
制造商(研发单位):
太空探索技术公司
制造商所在国:
美国
使用方式:
暂无
卫星简介
星链(Starlink)计划是由太空探索技术公司(SpaceX)提出的一个巨型低轨卫星互联网星座项目,计划在2019年至2024年间在太空搭建由约1.2万颗卫星组成的“星链”网络,其中1584颗将部署在地球上空550千米处的近地轨道,并从2020年开始工作。该卫星仍在工作。
2D轨道图
3D轨道图
轨道高度分析图
轨道倾角分析图
轨道综合分析图
查看轨道综合分析图